TimePDT,TemperatureF,Dew PointF,Humidity,Sea Level PressureIn,VisibilityMPH,Wind Direction,Wind SpeedMPH,Gust SpeedMPH,PrecipitationIn,Events,Conditions,WindDirDegrees,DateUTC
1:53 AM,57.0,50.0,77,30.10,10.0,WSW,10.4,-,N/A,,Clear,240,2013-05-10 08:53:00
2:53 AM,55.0,50.0,83,30.10,10.0,West,4.6,-,N/A,,Clear,260,2013-05-10 09:53:00
3:53 AM,54.0,48.9,83,30.10,10.0,WSW,5.8,-,N/A,,Clear,240,2013-05-10 10:53:00
6:53 AM,54.0,48.9,83,30.13,10.0,Calm,Calm,-,N/A,,Clear,0,2013-05-10 13:53:00
7:53 AM,57.0,50.0,77,30.15,10.0,SW,4.6,-,N/A,,Clear,230,2013-05-10 14:53:00
8:53 AM,64.0,51.1,63,30.15,10.0,East,3.5,-,N/A,,Clear,90,2013-05-10 15:53:00
10:53 AM,72.0,54.0,53,30.16,10.0,Variable,3.5,-,N/A,,Clear,0,2013-05-10 17:53:00
11:53 AM,75.0,55.0,50,30.14,10.0,Variable,3.5,-,N/A,,Clear,0,2013-05-10 18:53:00
12:53 PM,79.0,55.0,44,30.12,10.0,Calm,Calm,-,N/A,,Clear,0,2013-05-10 19:53:00
1:53 PM,82.0,57.0,42,30.10,10.0,South,6.9,-,N/A,,Clear,170,2013-05-10 20:53:00
2:53 PM,86.0,57.0,37,30.08,10.0,SSW,8.1,-,N/A,,Clear,210,2013-05-10 21:53:00
3:53 PM,88.0,57.9,36,30.05,10.0,WSW,12.7,17.3,N/A,,Clear,250,2013-05-10 22:53:00
4:53 PM,89.1,55.9,32,30.03,10.0,WSW,8.1,-,N/A,,Clear,240,2013-05-10 23:53:00
5:53 PM,84.0,55.9,38,30.02,10.0,SSW,9.2,17.3,N/A,,Clear,210,2013-05-11 00:53:00
6:53 PM,80.1,55.0,42,30.02,10.0,SW,11.5,-,N/A,,Clear,220,2013-05-11 01:53:00
7:53 PM,75.0,54.0,48,30.04,10.0,SW,6.9,-,N/A,,Clear,220,2013-05-11 02:53:00
8:53 PM,69.1,53.1,57,30.05,10.0,SW,9.2,-,N/A,,Clear,220,2013-05-11 03:53:00
9:53 PM,64.9,52.0,63,30.07,10.0,SW,9.2,-,N/A,,Clear,230,2013-05-11 04:53:00
10:53 PM,63.0,52.0,67,30.07,10.0,SW,9.2,-,N/A,,Clear,220,2013-05-11 05:53:00
11:53 PM,63.0,52.0,67,30.08,10.0,Variable,4.6,-,N/A,,Clear,0,2013-05-11 06:53:00